User: anonymous   Login
Location: Oronoko Observatory
(41.9167°N, 86.3833°W)
Time: 20:33:28
(UTC-04:00)
Language:

PAYLOAD A - Orbit

View from above orbital plane
View from above orbital plane
View from above satellite
View from above satellite

Ground track
Ground track

The orbit data is extracted from the following two-line orbital elements,

1 27840U 03031A   16211.92026812 -.00000008 +00000-0 +10919-4 0  9992
2 27840 098.1965 217.5180 0098537 011.3819 348.9566 14.38859961686870
Epoch (UTC): 29 July 2016 22:05:11
Eccentricity: 0.0098537
inclination: 98.1965°
perigee height: 692 km
apogee height: 832 km
right ascension of ascending node: 217.5180°
argument of perigee: 11.3819°
revolutions per day: 14.38859961
mean anomaly at epoch: 348.9566°
orbit number at epoch: 68687

The dashed part of the orbit path shows where the satellite is in the earth's shadow,  

DLR